Погода в Мальте

Россия / Иркутская область     52°50′17″N   103°31′20″E
темп.,
°C
ветер,
м/с
пор.,
м/с
влажн.,
%
обл.,
%
осадки,
мм/ч
давл.,
гПа
погр.,
м
21 июня, пн
пн2123:00+15вюв22774 0.0 100221
02:00+13вюв118021 0.0 100313
05:00+11юв23805 0.0 100456
08:00+17вюв345963 0.0 1003345
11:00+24юв464110 0.0 1001765
14:00+29юв45335 0.0 9991264
17:00+29юв5635100 0.0 9991488
20:00+22зюз49646 0.0 1002508
22 июня, вт
вт2223:00+13сз61293100 0.7 1008699
02:00+11зсз51193100 0.9 1010673
05:00+9зсз51194100 0.3 1012651
08:00+9зсз51093100 0.8 1013535
11:00+10зсз3787100 0.1 1013494
14:00+12сз3473100 0.1 1012688
17:00+15зсз236597 0.0 1011792
20:00+14сз1268100 0.0 1010411
23 июня, ср
ср2323:00+12всв1177100 0.0 101111
02:00+11ююв1183100 0.0 101011
05:00+10ююв1188100 0.0 100910
08:00+14юв2470100 0.0 1008298
11:00+20юв345499 0.0 1006728
14:00+25юв334355 0.0 10051191
17:00+28всв113899 0.0 10041572
20:00+22ссз4965100 0.0 1006334
24 июня, чт
чт2423:00+16сз399197 0.0 1008212
02:00+16зсз51184100 0.0 1009444
05:00+13зсз41092100 0.0 1009392
08:00+16сз347768 0.0 1008433
11:00+19зсз446997 0.1 1007940
14:00+18зсз458698 1.4 1007667
17:00+16зсз4784100 0.1 1007541
20:00+15зсз3895100 1.1 1007492
25 июня, пт
пт2523:00+14з399689 0.0 1008358
02:00+14зсз3896100 0.3 1007370
05:00+13з3798100 0.9 1007335
08:00+14зсз3896100 1.6 1008283
11:00+18сз2380100 0.0 1007604
14:00+22ссв2261100 0.1 10071080
17:00+24ссв2256100 0.0 10061185
20:00+21ссз2474100 0.0 1006139